GFSSE_925_thetae_021.txt.gz
Theta_e
351 351 349 351 350 348 350 349 347 349 347 345 346 344 342 344 344 347 349 348 352 352 353 353 352 352 351 351 351 351 350 350 350 348 347 346 346 348 336 345 343 345 343
351 351 349 352 352 351 351 346 348 344 344 343 345 344 346 348 353 352 352 352 353 353 353 352 352 351 351 351 350 350 350 350 349 347 349 348 348 347 340 344 344 341 347
350 349 349 346 346 347 351 347 346 343 344 344 346 345 347 351 353 353 353 354 354 353 352 352 352 352 351 350 350 350 349 346 343 342 345 348 346 343 346 344 343 344 347
348 349 349 348 349 350 352 350 349 346 346 345 343 342 342 352 353 353 353 354 352 350 351 351 351 351 352 351 350 350 348 345 345 346 348 341 343 336 348 344 344 348 347
349 351 349 346 348 353 353 353 349 349 352 345 341 340 344 354 354 353 353 352 350 351 349 350 351 352 352 352 348 349 349 346 346 345 344 343 342 338 346 344 343 344 345
351 352 349 347 347 353 353 353 354 354 350 344 343 346 354 354 353 352 353 352 352 352 352 351 352 352 353 352 350 344 343 345 349 348 344 341 344 339 347 349 345 346 343
352 353 351 348 350 353 353 354 354 353 349 344 345 353 354 354 352 353 352 348 349 352 352 353 353 350 349 351 348 345 344 347 349 350 346 342 341 337 347 342 345 342 346
352 352 353 353 353 354 354 354 352 352 349 345 348 350 354 352 350 352 351 347 351 353 353 355 353 344 343 344 347 345 343 345 351 351 349 347 335 338 346 343 342 347 345
351 352 352 353 352 354 354 352 353 353 350 347 349 351 348 346 342 338 340 344 347 352 353 352 347 344 343 342 343 343 343 347 352 350 350 349 339 346 344 348 348 346 347
352 351 352 352 352 354 354 353 353 353 347 347 348 345 343 339 336 344 348 351 346 345 348 350 344 344 342 343 342 343 343 349 352 349 350 350 346 342 351 345 348 347 348
352 352 352 353 351 351 352 352 351 351 350 350 343 342 341 352 352 353 353 347 346 345 344 344 345 343 344 349 348 346 348 350 349 349 351 347 345 342 349 347 344 347 345
352 352 351 351 351 350 348 352 350 350 349 349 350 352 350 351 352 350 349 347 346 346 346 345 342 349 350 352 350 349 349 347 347 349 350 345 344 344 348 349 345 345 345
352 351 350 352 350 349 352 350 350 350 350 350 352 352 351 351 350 349 351 354 354 351 353 352 352 352 351 349 349 348 347 346 345 348 350 347 342 344 345 349 347 345 346
351 349 348 350 352 351 350 349 349 348 348 348 350 352 352 351 349 351 349 352 351 350 351 351 351 353 349 350 350 349 347 346 346 344 350 348 343 343 347 350 350 346 346
350 349 349 350 353 352 354 349 349 348 348 347 348 351 350 349 349 351 351 351 352 351 350 351 350 351 350 350 349 348 346 346 346 344 348 347 346 343 345 351 349 349 349
350 350 350 352 353 354 353 355 351 350 349 348 348 348 353 351 350 350 352 351 351 349 351 351 351 352 351 349 348 347 345 343 343 342 340 348 344 345 342 346 349 350 350
350 350 351 352 353 355 354 354 352 351 349 349 349 351 352 355 354 355 354 352 350 350 353 353 353 352 351 349 344 342 340 339 338 336 337 337 344 346 344 342 343 344 347
349 349 351 351 351 354 354 355 353 351 351 351 350 352 353 354 355 355 353 351 351 351 352 351 350 349 342 340 335 335 336 337 337 340 339 338 338 341 346 343 341 342 342
349 350 351 351 351 353 354 354 353 352 354 353 352 352 353 354 355 355 351 350 354 351 352 351 348 344 341 335 333 334 338 339 339 338 338 339 339 338 339 346 343 344 344
349 350 352 352 352 352 354 355 355 354 355 352 351 354 352 354 353 353 352 353 353 352 351 349 346 343 339 336 336 335 338 339 339 339 338 338 340 340 342 345 347 347 344
349 352 353 353 353 354 355 356 355 354 352 351 352 353 355 355 354 354 352 352 353 350 349 346 343 336 336 340 338 339 338 339 339 340 340 337 339 340 341 343 347 347 345
351 353 355 356 356 357 357 355 353 350 348 350 354 354 356 354 354 354 353 352 352 346 348 343 339 338 336 339 338 336 339 340 339 339 337 334 336 336 339 342 343 344 344
351 353 357 358 359 359 357 355 356 354 351 352 347 350 354 352 352 354 354 350 351 345 336 341 341 340 338 338 339 340 339 343 338 338 339 334 333 333 334 336 335 335 336
351 354 357 360 360 360 360 357 354 354 351 347 346 347 347 348 348 351 348 347 347 338 339 339 339 341 338 337 337 338 338 339 340 340 336 334 332 332 330 329 329 329 329
351 353 356 360 362 361 361 357 356 354 349 349 347 349 347 349 348 346 348 347 343 335 340 342 340 341 341 336 335 336 338 335 336 334 335 333 332 330 330 329 327 326 328
350 352 353 360 363 364 362 362 360 358 352 351 350 350 347 348 347 347 348 346 342 337 342 342 340 341 339 340 340 337 333 334 334 334 334 333 334 331 330 329 329 328 327

GFSSE_925_thetae_024.txt.gz
Theta_e
348 346 346 346 344 344 345 347 348 347 346 345 344 343 343 347 347 349 348 349 350 351 351 351 352 352 352 351 352 351 350 347 347 348 348 348 341 343 346 343 346 347 348
351 350 345 346 346 346 346 347 346 345 346 345 343 344 347 350 349 349 350 351 351 352 352 353 352 352 351 351 351 351 349 343 350 349 349 348 345 343 344 345 346 345 348
351 351 351 348 346 347 348 344 344 344 346 344 345 348 351 352 351 352 352 353 354 353 353 352 352 352 351 351 351 350 346 343 343 348 346 347 342 343 346 343 345 348 347
349 349 348 344 344 347 345 342 344 344 346 345 345 349 351 352 352 353 354 354 351 352 352 353 352 352 352 351 350 347 344 344 344 346 346 346 339 346 345 348 348 348 346
348 351 347 347 350 350 348 347 348 350 347 344 345 349 352 353 352 353 353 350 350 352 352 352 353 352 352 352 350 347 345 346 345 348 345 341 340 347 341 343 346 345 346
352 350 346 349 353 353 351 352 352 349 345 344 348 353 351 350 351 353 353 352 352 352 353 353 353 352 352 349 345 343 344 347 346 347 344 343 338 346 347 347 349 347 342
352 351 350 348 353 353 352 353 353 351 345 345 350 352 354 352 353 351 351 351 352 353 354 355 352 349 346 344 343 343 342 348 350 350 347 342 330 345 346 347 348 347 346
352 352 353 352 353 351 353 352 353 349 346 345 349 348 345 345 344 346 344 349 352 353 354 351 346 344 343 341 342 343 343 350 350 349 346 340 330 340 340 343 346 347 346
352 353 354 354 355 352 353 353 351 349 344 346 345 342 343 345 341 339 343 344 344 345 347 348 345 343 342 341 340 340 344 347 352 350 349 343 334 341 347 343 346 347 347
352 353 354 354 355 354 353 352 348 345 345 343 339 339 343 346 344 345 351 351 345 345 343 343 342 342 343 345 343 343 345 348 351 349 350 347 339 343 344 347 347 348 345
351 351 353 354 355 354 352 349 348 347 345 341 338 340 341 341 350 353 354 349 343 343 344 343 342 344 348 351 349 348 346 345 351 340 352 344 344 344 350 344 348 347 347
351 350 352 351 351 353 351 349 350 350 349 345 349 351 347 352 353 352 348 349 350 348 349 349 345 346 351 352 351 350 344 349 350 346 349 343 344 343 350 345 340 343 344
352 351 353 351 350 349 351 346 351 351 350 350 352 352 354 352 351 351 352 353 351 353 354 353 347 341 352 352 351 350 348 347 348 345 347 344 343 343 349 348 342 341 341
350 351 352 351 351 352 350 347 351 352 350 352 352 351 349 353 348 349 352 350 351 351 352 353 350 350 351 350 350 347 348 347 346 350 347 346 343 342 344 350 347 346 346
350 350 354 353 349 352 354 350 350 350 348 348 351 351 350 351 350 351 349 349 352 350 349 351 350 351 349 349 349 347 347 345 344 348 349 346 345 342 344 347 351 349 347
350 349 351 352 352 351 353 354 352 351 350 347 348 353 350 348 351 354 351 351 351 350 350 351 352 350 350 352 347 346 341 340 340 340 340 347 345 343 342 343 346 346 350
349 349 351 352 354 350 352 354 355 351 349 349 348 352 353 354 353 349 354 353 352 351 351 353 349 351 351 352 350 344 336 336 337 336 337 337 344 344 343 341 342 343 346
350 351 352 351 354 353 355 355 352 350 351 351 352 350 350 352 352 351 352 353 352 351 351 351 351 348 348 340 334 333 335 337 337 338 340 338 341 347 344 343 341 341 341
350 352 351 352 353 356 354 354 354 354 352 350 351 351 352 352 354 352 353 352 353 353 351 350 350 346 343 338 334 334 338 339 339 339 338 338 338 337 346 346 342 342 343
350 351 352 352 352 355 354 354 356 354 356 353 355 350 352 354 350 353 353 354 352 352 352 348 348 344 338 336 339 335 337 338 340 341 337 339 339 342 346 346 344 345 343
350 353 353 353 352 358 359 357 355 356 355 350 353 352 354 355 354 352 352 352 351 350 350 347 343 338 338 339 335 339 340 337 338 340 337 337 338 340 339 342 345 344 344
350 352 355 354 356 353 356 356 355 353 356 351 351 349 352 354 353 350 351 352 352 350 349 344 340 339 337 338 337 339 342 341 339 338 337 335 335 336 341 341 341 342 343
352 355 356 356 357 355 357 355 353 355 357 354 355 352 355 356 353 352 354 352 352 345 346 341 341 341 339 341 337 340 346 345 342 339 336 334 333 334 336 334 334 332 336
352 355 358 359 357 361 353 359 356 356 354 347 347 353 356 353 351 354 351 349 349 342 343 340 340 340 338 339 339 337 336 335 344 343 336 334 331 332 330 332 329 329 328
352 355 360 361 361 361 360 359 359 357 348 350 349 349 353 350 347 352 348 348 347 335 340 342 340 336 343 337 339 339 337 334 336 337 342 335 334 331 329 327 328 329 327
352 355 357 364 364 361 362 359 357 358 352 351 351 350 348 351 349 347 347 348 343 337 344 342 340 341 339 340 339 336 333 337 337 338 340 337 336 331 330 329 329 328 328

GFSSE_925_thetae_030.txt.gz
Theta_e
348 348 347 345 349 347 349 348 347 345 345 343 340 338 338 343 347 343 345 348 347 351 351 349 350 351 348 343 343 349 349 349 348 349 346 347 349 349 349 350 348 343 344
347 347 349 350 351 350 348 349 345 341 340 339 338 339 342 346 347 346 347 347 348 352 352 352 351 351 349 345 345 348 343 348 348 347 344 344 348 345 349 349 347 345 348
346 346 347 349 351 350 348 343 343 341 340 344 342 342 345 348 350 351 349 349 352 352 351 352 352 351 350 347 348 346 343 343 344 344 341 339 346 347 350 348 345 347 348
345 346 347 348 349 350 345 343 344 344 347 348 345 348 351 352 352 352 352 352 352 350 348 351 352 351 347 344 347 346 344 345 345 345 342 342 346 348 348 347 345 345 346
345 345 348 347 348 350 346 348 345 350 349 348 346 346 350 352 352 352 352 352 352 348 347 349 348 349 345 342 344 346 344 347 349 349 343 344 344 348 348 348 346 348 347
345 343 347 345 350 349 350 350 346 344 345 347 348 347 351 352 352 352 350 350 353 349 349 346 345 345 345 342 342 344 344 345 343 343 342 342 343 347 347 348 345 347 347
344 345 346 345 346 348 348 347 346 346 344 348 347 349 347 351 351 345 347 348 349 350 352 346 343 341 343 343 343 346 345 346 342 340 340 338 345 347 350 349 346 347 344
344 348 349 347 343 344 351 348 343 345 347 345 347 346 342 345 341 343 345 346 348 351 349 347 344 343 342 342 343 346 346 346 343 344 337 339 345 349 349 348 346 347 345
346 351 351 349 349 349 350 349 345 344 346 344 346 343 343 341 339 343 346 346 346 345 347 346 345 344 343 343 344 346 345 345 342 341 340 340 343 349 347 348 347 347 345
347 350 350 351 352 350 350 351 347 342 341 343 342 340 338 336 343 349 350 346 344 345 345 343 344 345 347 348 346 345 338 342 333 340 344 337 337 346 346 347 346 346 346
348 349 349 350 352 349 349 350 347 342 341 337 334 336 337 342 347 349 348 346 346 346 344 344 346 347 349 349 347 347 344 339 337 341 346 338 340 344 343 347 347 346 345
352 350 348 350 351 348 344 348 340 338 334 332 334 337 341 345 349 351 350 348 348 349 351 347 344 344 347 349 349 348 343 344 332 342 345 343 340 349 348 347 348 343 344
351 351 349 348 348 342 340 339 336 333 332 332 336 348 350 350 350 350 349 349 348 349 348 347 349 346 348 348 349 349 344 345 342 336 343 344 342 347 347 348 347 346 346
352 350 348 348 346 340 335 334 333 334 334 338 346 350 351 352 351 351 349 350 350 347 349 349 348 346 348 348 349 349 346 345 343 342 345 343 343 344 349 346 346 346 346
353 352 350 350 350 348 344 336 333 340 342 348 348 349 350 351 351 352 351 350 350 350 350 350 348 347 348 348 346 344 343 345 345 343 343 342 341 342 346 349 345 346 346
352 352 351 351 352 350 350 347 342 348 349 349 350 350 352 349 351 351 351 349 351 349 350 350 348 348 346 350 344 346 341 343 342 343 344 341 341 340 341 343 349 348 346
349 350 350 350 350 350 351 350 350 352 352 351 351 351 352 349 349 348 348 348 347 349 350 347 349 347 347 341 337 340 338 337 338 339 339 343 342 340 339 341 342 344 346
349 351 351 350 348 350 349 351 354 352 350 350 350 351 351 349 350 349 349 348 351 352 351 349 347 347 341 338 335 336 334 335 336 336 338 339 340 342 340 340 339 340 341
350 351 352 351 350 350 352 353 352 351 350 351 350 351 351 352 351 351 350 350 350 352 351 349 348 344 339 336 335 337 335 337 339 339 338 339 338 341 343 341 340 339 339
348 350 351 352 351 352 353 350 350 349 348 351 352 350 351 349 351 351 350 349 351 349 350 347 346 341 334 338 338 336 337 338 340 338 339 341 341 342 346 343 341 341 342
348 351 352 352 350 349 347 347 347 348 347 351 352 349 351 351 351 351 350 351 352 351 349 348 344 341 336 338 333 334 339 338 339 339 339 340 341 346 344 343 344 345 344
349 352 352 352 351 350 351 348 347 348 349 349 352 352 352 353 352 352 350 350 351 350 348 346 339 333 337 338 335 337 335 338 337 335 335 337 342 343 342 340 337 341 341
348 351 351 352 353 352 352 351 351 350 354 355 354 353 352 352 352 352 349 348 350 350 349 345 333 336 339 340 335 338 334 336 339 336 334 341 341 340 335 330 330 339 340
349 350 350 351 351 354 353 353 353 354 355 352 351 352 350 351 352 353 350 348 348 351 348 345 337 336 337 339 338 336 334 335 335 335 335 333 334 336 333 329 327 329 330
348 350 350 350 352 353 354 354 353 353 352 348 351 356 353 352 353 352 351 351 350 347 346 338 339 338 336 336 339 337 337 336 332 333 332 334 333 332 332 331 328 327 327
348 350 351 351 353 353 354 354 354 354 353 350 353 353 354 353 353 349 350 350 349 341 339 338 338 335 340 338 337 338 334 334 335 334 328 330 332 332 330 329 329 327 327

GFSSE_925_thetae_033.txt.gz
Theta_e
346 344 344 345 342 347 345 340 340 342 340 339 340 339 337 342 342 345 348 348 350 350 351 351 350 344 342 343 348 349 348 349 347 346 347 348 348 348 348 349 343 344 346
346 344 343 343 347 349 349 347 343 340 341 338 336 336 345 343 347 351 351 351 348 349 351 351 351 345 344 345 342 345 347 347 347 344 345 347 347 343 349 348 341 346 348
346 345 345 347 351 351 350 350 345 342 339 339 339 343 345 346 348 351 351 348 347 350 351 351 350 346 344 345 344 342 343 343 344 345 343 343 345 345 349 346 347 348 347
346 347 347 350 350 351 350 349 348 352 347 344 342 350 351 352 351 352 351 349 348 349 351 351 350 346 347 345 343 343 344 344 344 344 337 344 347 350 346 344 346 347 346
346 347 348 350 348 350 351 350 348 353 350 341 351 352 350 351 351 351 351 351 347 348 350 344 345 346 347 346 344 344 346 347 348 344 342 340 344 347 348 343 346 348 346
346 347 350 351 351 351 351 351 352 352 346 346 345 345 350 346 347 351 351 351 348 350 346 340 342 345 347 346 344 344 345 345 344 348 341 338 346 349 348 347 347 347 347
346 348 348 349 350 351 351 351 351 344 344 347 346 344 346 346 351 351 349 352 349 349 347 345 342 343 345 344 345 344 345 343 342 344 341 337 344 346 348 347 347 346 347
344 347 348 350 350 351 351 351 348 342 349 347 344 343 343 345 347 346 347 350 351 349 346 345 343 343 343 344 346 346 345 344 339 341 339 340 344 349 350 346 347 344 347
344 346 348 350 350 351 351 351 345 346 347 345 342 342 341 342 344 345 346 346 346 346 346 344 343 344 343 343 345 345 345 344 343 342 340 343 345 349 349 347 347 345 345
346 347 348 348 351 349 350 350 347 345 347 342 341 340 339 341 345 349 348 347 344 344 344 343 344 346 347 346 345 342 339 343 341 342 339 339 342 348 347 347 347 347 345
349 348 348 348 350 346 347 348 348 344 343 340 338 338 340 341 345 348 347 347 346 345 344 345 347 347 348 345 346 346 342 338 334 336 338 337 335 346 346 348 346 346 346
352 352 350 350 352 350 348 345 344 342 341 338 335 337 339 343 347 349 348 347 348 348 348 345 345 344 347 347 345 347 343 338 334 344 345 338 338 345 344 346 346 345 344
349 350 349 349 349 348 347 343 341 338 337 334 334 337 340 345 349 349 347 348 348 348 347 347 348 346 348 348 348 347 345 344 334 338 345 342 339 347 349 347 347 344 345
349 348 347 348 351 348 342 339 336 336 334 333 333 340 349 350 351 350 348 348 349 346 347 349 347 346 348 348 348 346 345 345 343 341 344 342 341 344 348 348 347 346 346
350 348 347 346 349 344 338 336 336 336 334 333 335 344 349 351 351 350 350 350 348 349 349 348 347 347 346 348 349 345 341 344 343 342 342 342 341 341 347 347 347 346 346
350 350 347 346 345 341 335 335 335 334 334 340 343 347 348 350 350 351 349 350 349 345 349 349 347 345 345 349 344 348 344 343 343 340 342 341 340 339 341 349 347 346 346
350 349 350 347 346 342 338 336 336 334 339 345 348 349 350 351 350 350 349 350 350 349 349 348 349 347 346 341 339 338 340 341 341 342 344 341 340 338 338 342 342 344 345
350 351 350 348 347 348 346 345 347 345 347 350 350 350 350 350 349 349 349 348 348 349 350 349 347 346 340 337 336 334 333 336 336 340 341 342 341 341 339 339 339 340 341
350 350 351 350 348 349 349 349 350 353 351 350 348 349 350 351 350 350 349 347 348 350 351 349 348 346 341 338 336 336 334 334 339 338 337 337 337 341 341 340 339 338 339
349 349 349 350 349 347 349 349 349 353 350 349 349 349 350 350 349 351 350 348 349 351 350 348 347 342 334 337 337 336 337 338 340 338 338 339 338 339 343 342 341 340 339
348 348 349 350 349 349 349 351 351 351 350 348 351 352 350 351 351 351 350 349 348 350 349 349 346 343 335 337 333 335 338 337 339 338 340 341 341 342 345 344 342 342 343
348 348 349 351 351 350 349 350 353 351 350 348 347 352 350 351 350 351 351 350 351 351 348 349 346 339 334 339 334 335 333 337 337 338 340 340 340 344 343 342 340 341 344
347 348 349 350 351 351 350 351 351 349 348 348 348 351 351 351 352 351 352 350 349 351 349 347 344 331 336 338 335 337 334 334 336 333 337 342 341 342 339 332 329 339 340
347 348 349 350 351 350 350 350 349 348 348 348 350 348 349 352 351 352 352 350 348 348 349 347 341 331 337 338 337 336 334 337 334 334 337 342 342 340 334 329 328 332 337
348 348 349 349 351 351 350 350 350 350 349 347 348 352 352 352 352 352 352 351 348 348 349 346 341 335 338 337 337 335 336 334 333 332 331 332 334 336 334 330 328 327 327
348 347 349 350 351 351 351 351 351 351 351 349 350 351 349 352 353 352 353 351 349 348 349 346 340 338 337 336 337 337 334 333 334 331 328 330 331 332 331 332 329 328 327